STARLINK-32595, 62037

Orbit data source: Space-Track

STARLINK-32595, 62037 is a payload satellite owned by SpaceX/Seattle (US) in LEO that was launched on Thu, 21 Nov 2024 UTC via an FALCON 9 launch vehicle from the Air Force Eastern Test Range (AFETR). Payloads include a variety of satellites, spacecraft, and rockets equipped with specific instruments for various scientific and technological missions. These include communications satellites like Starlink; space stations such as the ISS; scientific satellites like the Hubble; Earth observation satellites from companies like Planet Labs, Umbra, and HawkEye 360; GPS; miniature CubeSats for education and research; and military/defense satellites.

Loading next visibility...
STARLINK-32595 details
Identifier
62037, 2024-216F
Orbit
LEO
Last TLE update6 hours ago
Origin
Flag of USSpaceX/Seattle (US)
ManufacturerSpaceX/Seattle
MissionOperational spacecraft
Bus & MotorSTARLINK V2M, Unknown motor
Mass730 kg wet, ~700 kg dry
Launch date (UTC)
2024-11-21 (1 month ago)
Launch vehicle
FALCON 9
Launch site
Air Force Eastern Test Range (AFETR)
Object type
Payload
Rocket body
Debris
Shape & HBRUnknown
Radar Cross SectionLarge (>1 m²)

Expand to show TLE details & history

TLE from 6 hours ago
0 STARLINK-32595
1 62037U 24216F   24361.16668981  .00071350  00000-0  17005-2 0  9995
2 62037  42.9991 233.6709 0001547 275.7109 273.8821 15.40679924  6578
Epoch: 2024-12-26T04:00Z
Definitive object data (Epoch: 2024-12-26T04:00:01.999Z)
Latitude-6.61023°
Longitude-94.38835°
Altitude444.899 km
Speed7.647 km/s
True Right ascension04h 03m 04s
True Declination-6° 34' 09"
Sunlit
Object was in full shadow at TLE epoch
Visualization TLE readout
Latitude35.86493°
Longitude-153.35353°
Altitude446.572 km
Speed7.649 km/s
Apparent Right ascension22h 47m 28s
Apparent Declination0° 32' 56"
Sunlit
Object is in daylight
Visualization observer readout
Local Sidereal Time09:16:47
Azimuth326.61° NNW
Elevation-45.549°
Doppler factor1
Orbital elements
Apogee altitude447.114 km
Perigee altitude445.002 km
Semi-major axis6,824.195 km
Eccentricity0.0001547
Inclination42.9991°
RAAN233.6709°
Arg. of periapsis275.7109°
True anomaly273.86441°
Mean anomaly273.8821°
Eccentric anomaly273.87326°
Mean motion3.85005 °/min
BSTAR0.0017005
Orbital period93.51 mins
Loading maneuver chart data...
Loading historical data...
Loading historical data...
Loading historical data...
Loading historical data...
Loading historical data...
Loading historical data...
Loading historical data...

STARLINK-32595 Visibility forecast

Observer location: undefined°, undefined

Span
Click to sort rows by Start time (UTC) header in descending order
Start Az.
Max El. time (UTC)
Max El. Az.
Max El.
End time (UTC)
End Az.
5 mins2024-12-26 18:56:41.274Z209.587° SW2024-12-26 18:59:41.274Z133.853° SE27.26°2024-12-26 19:01:41.274Z91.475° ESE
4 mins2024-12-26 20:35:41.274Z270.021° WNW2024-12-26 20:36:41.274Z293.396° NW40.287°2024-12-26 20:39:41.274Z67.869° E
5 mins2024-12-26 22:13:41.274Z297.994° NW2024-12-26 22:15:41.274Z17.356° NNE37.269°2024-12-26 22:18:41.274Z80.165° E
5 mins2024-12-26 23:51:41.274Z283.41° WNW2024-12-26 23:53:41.274Z199.997° SSW44.057°2024-12-26 23:56:41.274Z116.637° SE
|